Regional Weather Roundup
Issued by NWS

Home | Current Version | Previous Version | Text Only | Print | Product List | Glossary Off
Versions: 1 2 3 4 5 6 7 8 9 10 11 12 13 14 15 16 17 18 19 20 21 22 23 24 25 26 27 28 29 30 31 32 33 34 35 36 37 38 39 40 41 42 43 44 45 46 47 48 49 50

000
ASUS43 KFSD 191410
RWRSD

WEATHER ROUNDUP FOR SOUTH DAKOTA
NATIONAL WEATHER SERVICE SIOUX FALLS SD
900 AM CDT SUN APR 19 2015

NOTE: "FAIR" INDICATES FEW OR NO CLOUDS BELOW 12,000 FEET WITH NO
SIGNIFICANT WEATHER AND/OR OBSTRUCTIONS TO VISIBILITY.


SDZ001>005-009-010-012>017-191500-
NORTHWEST AND NORTH CENTRAL SOUTH DAKOTA

CITY           SKY/WX    TMP DP  RH WIND       PRES   REMARKS
BUFFALO          N/A     39  25  57 NW31G40   29.98F
FAITH            N/A     39  29  67 NW22      30.00F
MOBRIDGE       SUNNY     44  34  67 NW21G30   29.89F
$$

SDZ012>016-024>037-041>051-057-063-072>074-191500-
SOUTHWEST AND SOUTH CENTRAL SOUTH DAKOTA

CITY           SKY/WX    TMP DP  RH WIND       PRES   REMARKS
RAPID CTY ARPT SUNNY     41  25  53 NW25G31   30.08S
PIERRE         MOSUNNY   45  34  65 NW21G31   29.95R
CUSTER         SUNNY     32  17  54 NW16G22   30.06S WCI  21
ELLSWORTH AFB  SUNNY     41  25  53 NW23G32   30.06F
PHILIP         SUNNY     43  30  60 NW18      30.02S
PINE RIDGE     SUNNY     42  26  53 NW15G24   30.07S
SPEARFISH      FAIR      36  23  60 W17G23    30.11F
WINNER         FAIR      45  34  65 NW23G29   29.94S
$$

SDZ004>011-016>023-039-040-191500-
NORTHEAST SOUTH DAKOTA

CITY           SKY/WX    TMP DP  RH WIND       PRES   REMARKS
ABERDEEN       CLOUDY    46  40  79 NW17      29.84R
WATERTOWN      CLOUDY    46  43  89 NW22G35   29.76R
BROOKINGS      PTSUNNY   50  46  87 NW22      29.74F
SISSETON         N/A     48  47  96 NW17      29.72S
$$

SDZ017-020-022-023-036>040-048>070-191500-
SOUTHEAST SOUTH DAKOTA

CITY           SKY/WX    TMP DP  RH WIND       PRES   REMARKS
SIOUX FALLS    CLOUDY    52  46  80 N16       29.74F
HURON          CLOUDY    46  41  82 NW25G33   29.83S
CHAMBERLAIN    CLOUDY    45  35  68 NW22G32   29.92R
MITCHELL       CLOUDY    47  41  80 NW28G35   29.84R
YANKTON        CLOUDY    48  45  87 NW24G32   29.79S
$$

ABBREVIATIONS USED IN REMARKS
   TC - TEMPERATURE IN CELSIUS
  WCI - WIND CHILL INDEX
   HX - HEAT INDEX
  VSB - VISIBILITY




USA.gov is the U.S. government's official web portal to all federal, state and local government web resources and services.